Regional Weather Roundup
Issued by NWS Midland/Odessa, TX

Skip options and go directly to product.
Home | Oldest Version | Previous Version | Current Version | All | Text Only | Save Text | Print | Product List | Glossary Off

Skip product version selection by date and time.   

510
ASUS44 KMAF 090110
RWRMAF
MIDLAND AREA WEATHER ROUNDUP
NATIONAL WEATHER SERVICE MIDLAND TX
700 PM CST MON FEB 08 2016

...IN SOUTHWEST TEXAS AND SOUTHEAST NEW MEXICO...

CITY           SKY/WX    TMP DP  RH WIND       PRES   REMARKS
ALPINE         CLOUDY    45  16  31 NE7       30.44R
ANDREWS        FAIR      49  13  24 W3        30.37R
ARTESIA        CLEAR     45  14  29 S8        30.36S
BIG SPRING     CLEAR     47  15  27 W3        30.37S
CARLSBAD       CLEAR     44  14  29 SE8       30.35F WCI  39
DRYDEN           N/A     52  14  22 N7        30.36S
FORT STOCKTON  CLOUDY    46  16  30 SE5       30.38F
GUAD PASS      CLEAR     42  10  27 E15       30.36F WCI  34
HOBBS          CLEAR     45  10  24 CALM      30.36S
MARFA          CLOUDY    45  16  31 NE10      30.38R WCI  40
MIDLAND AIRPK  CLEAR     52  14  22 CALM      30.37S
MIDLAND INTL   CLEAR     48  16  27 W5        30.36S
ODESSA         CLEAR     49  12  22 CALM      30.36S
PECOS          CLEAR     46  14  27 CALM      30.38S
PRESIDIO       FAIR      57  15  18 NE6       30.31S
SEMINOLE       CLEAR     46  15  28 SW5       30.37S
SNYDER           N/A     51  18  27 NW6       30.35R
WINK           CLEAR     46  14  27 SW8       30.36S
$$
...OTHER STATIONS IN TEXAS...

CITY           SKY/WX    TMP DP  RH WIND       PRES   REMARKS
ABILENE        CLEAR     50  14  23 N6        30.32R
AMARILLO       CLEAR     42  19  39 N10       30.36R WCI  36
AUSTIN         PTCLDY    57  15  19 NW7       30.29R
BROWNSVILLE    CLOUDY    57  38  48 N3        30.34R
CORPUS CHRISTI CLOUDY    58  19  22 NW8       30.31R
DALLAS FTW     PTCLDY    50   9  19 N13       30.26R
DEL RIO        PTCLDY    57  18  21 NW5       30.35F
EL PASO        PTCLDY    58  15  18 CALM      30.30S
HOUSTON INT    PTCLDY    55  13  18 NW10      30.25R
LUBBOCK        PTCLDY    44  17  33 NW6       30.34R
SAN ANGELO     CLEAR     53  15  22 NW6       30.34S
SAN ANTONIO    PTCLDY    57  20  23 NW5       30.32R
WACO           CLEAR     50  11  20 MISG      30.28R
WICHITA FALLS  NOT AVBL
$$
...OTHER LOCATIONS IN NEW MEXICO...

CITY           SKY/WX    TMP DP  RH WIND       PRES   REMARKS
ALAMAGORDO     CLEAR     52  18  25 S7        30.31R
ALBUQUERQUE    PTCLDY    52  20  28 N14       30.34R
CANNON AFB     CLEAR     45  15  29 NW3       30.36R
CLOVIS         CLEAR     45  16  31 W5        30.37R
HOLLOMAN AFB   CLEAR     52  17  25 W5        30.29S
ROSWELL        CLEAR     41  16  36 S8        30.35S WCI  36
RUIDOSO          N/A     39  12  33 SE5       30.38R WCI  36
SANTA FE       CLEAR     43  16  33 NW7       30.34R WCI  39
TRUTH OR CONSE PTCLDY    58  14  17 CALM      30.30S
TUCUMCARI      CLEAR     44  14  29 CALM      30.36R
$$

USA.gov is the U.S. government's official web portal to all federal, state and local government web resources and services.